Home   Weather   Kielce   Past weeks
Flag for Poland

Past Weather in Kielce, Poland — Yesterday and Last 2 Weeks

Now
67 °F

Fog.


Feels Like: 67 °F
Forecast: 67 / 48 °F
Wind: 1 mph from Northwest

Location: Kielce

Current Time: Oct 22, 2019 at 3:49:45 pm

Latest Report: Oct 22, 2019 at 2:00 pm


Visibility: 6 mi

Pressure: 30.20 "Hg

Humidity: 70%

Dew Point: 56 °F

Location of KielceLocation

Past Weather in Kielce — Graph

°F

Kielce Temperature Yesterday

Maximum temperature yesterday: 71 °F (at 3:00 pm)
Minimum temperature yesterday: 42 °F (at 7:00 am)
Average temperature yesterday: 54 °F

High & Low Weather Summary for the Past Weeks

 TemperatureHumidityPressure
High72 °F (Oct 14, 4:00 pm)100% (Oct 14, 2:00 am)30.24 "Hg (Oct 14, 2:00 am)
Low29 °F (Oct 8, 7:00 am)45% (Oct 12, 4:00 pm)29.80 "Hg (Oct 10, 4:00 am)
Average52 °F83%30.03 "Hg
* Reported Oct 7 2:00 pm — Oct 22 2:00 pm, Kielce. Weather by CustomWeather, © 2019

Note: Actual official high and low records may vary slightly from our data, if they occured in-between our weather recording intervals... More about our weather records

Advertising

Kielce Weather History for the Previous 24 Hours

Scroll right to see more
 ConditionsComfort  
Time TempWeatherWind HumidityBarometerVisibility
2:00 pm
Tue, Oct 22
67 °FFog.1 mph70%30.20 "Hg6 mi
1:00 pm65 °FFog.2 mph73%30.21 "Hg6 mi
12:00 pm63 °FFog.1 mph89%30.23 "Hg5 mi
11:00 am59 °FFog.1 mph97%30.24 "Hg4 mi
10:00 am51 °FFog.1 mph100%30.24 "Hg1 mi
9:00 am45 °FFog.No wind100%30.24 "Hg0 mi
8:00 am41 °FFog.1 mph100%30.24 "Hg0 mi
7:00 am41 °FFog.1 mph100%30.23 "Hg1 mi
6:00 am42 °FFog.1 mph98%30.23 "Hg1 mi
5:00 am43 °FFog.1 mph100%30.22 "Hg1 mi
4:00 am42 °FFog.1 mph97%30.22 "Hg1 mi
3:00 am45 °FFog.1 mph100%30.21 "Hg1 mi
2:00 am44 °FFog.1 mph100%30.22 "Hg1 mi
1:00 am47 °FFog.No wind97%30.21 "Hg1 mi
12:00 am47 °FFog.1 mph97%30.21 "Hg1 mi
11:00 pm
Mon, Oct 21
49 °FFog.1 mph100%30.20 "Hg1 mi
10:00 pm50 °FFog.1 mph96%30.20 "Hg1 mi
9:00 pm52 °FFog.1 mph94%30.19 "Hg1 mi
8:00 pm53 °FFog.1 mph94%30.17 "Hg4 mi
7:00 pm56 °FClear.1 mph90%30.17 "Hg5 mi
6:00 pm60 °FPassing clouds.2 mph82%30.14 "Hg12 mi
5:00 pm67 °FPassing clouds.1 mph63%30.12 "Hg16 mi
4:00 pm70 °FPassing clouds.2 mph58%30.11 "Hg19 mi
3:00 pm71 °FPassing clouds.1 mph54%30.11 "Hg19 mi
Weather by CustomWeather, © 2019

See weather overview